Location: Redding Observatory
(29.1111°N, 81.3442°W)
Time: 21:54:19
(UTC-05:00)

N. Korean satellite - Visible Passes

Search period start: 20 January 2022 00:00
Search period end: 30 January 2022 00:00
Orbit: 446 x 491 km, 97.3° (Epoch: 20 January)

Date Brightness Start Highest point End Pass type
(mag) Time Alt. Az. Time Alt. Az. Time Alt. Az.
20 Jan 8.0 05:28:05 30° S 05:28:05 30° S 05:30:03 10° S visible
21 Jan 9.2 04:58:41 18° SE 04:58:41 18° SE 05:00:12 10° SSE visible
21 Jan9.006:32:44WSW06:32:44WSW06:25:23NNWvisible
22 Jan 8.2 06:03:19 19° SW 06:03:19 19° SW 06:04:35 10° SW visible
23 Jan 7.9 05:33:53 30° S 05:33:53 30° S 05:35:48 10° S visible
24 Jan 8.9 05:04:26 21° SE 05:04:26 21° SE 05:06:07 10° SSE visible
24 Jan9.106:38:28WSW06:38:28WSW06:32:11NNWvisible
25 Jan 8.4 06:09:00 17° SW 06:09:00 17° SW 06:10:01 10° SW visible
26 Jan 7.8 05:39:30 29° SSW 05:39:30 29° SSW 05:41:22 10° SSW visible
27 Jan 8.6 05:09:57 24° SE 05:09:57 24° SE 05:11:48 10° SSE visible
27 Jan9.106:43:59WSW06:43:59WSW06:39:02NWvisible
28 Jan 9.9 04:40:22 11° ESE 04:40:22 11° ESE 04:40:52 10° ESE visible
28 Jan 8.4 06:09:17 10° NNW 06:14:25 15° WSW 06:15:17 10° SW visible
29 Jan 7.6 05:39:35 10° N 05:44:46 31° SSW 05:46:45 10° SSW visible
